Photometre #855[NE_1.6_Dp] Glasgow_MO AOT

File : 20190925_855.hum

25/09/2019,07:12:38,TEMP=14.1,BA=5.64,STAT.A,ExtBa=12.30
25/09/2019,07:17:19,TEMP=14.3,BA=5.64,STAT.A,ExtBa=12.30
25/09/2019,07:22:49,TEMP=14.5,BA=5.64,STAT.A,ExtBa=12.30
25/09/2019,07:29:22,TEMP=14.6,BA=5.64,STAT.A,ExtBa=12.30
25/09/2019,07:37:18,TEMP=14.8,BA=5.60,STAT.A,ExtBa=12.30
25/09/2019,07:47:10,TEMP=15.0,BA=5.64,STAT.A,ExtBa=12.30
25/09/2019,07:59:47,TEMP=15.3,BA=5.64,STAT.B,ExtBa=12.30
25/09/2019,08:05:52,TEMP=15.4,BA=5.60,STAT.A,ExtBa=12.30
25/09/2019,08:12:45,TEMP=15.5,BA=5.64,STAT.A,ExtBa=12.30
25/09/2019,08:20:36,TEMP=15.5,BA=5.64,STAT.A,ExtBa=12.30
25/09/2019,08:29:37,TEMP=15.7,BA=5.64,STAT.A,ExtBa=12.30
25/09/2019,08:40:09,TEMP=15.9,BA=5.60,STAT.C,ExtBa=12.30
25/09/2019,08:52:41,TEMP=16.0,BA=5.64,STAT.A,ExtBa=12.30
25/09/2019,09:07:54,TEMP=16.0,BA=5.64,STAT.A,ExtBa=12.30
25/09/2019,09:10:32,TEMP=16.1,BA=5.64,STAT.F,ExtBa=12.20
25/09/2019,09:25:31,TEMP=15.4,BA=5.64,STAT.D,ExtBa=12.30
25/09/2019,09:40:31,TEMP=15.7,BA=5.64,STAT.D,ExtBa=12.30
25/09/2019,09:55:31,TEMP=16.3,BA=5.64,STAT.D,ExtBa=12.30
25/09/2019,10:10:33,TEMP=16.6,BA=5.64,STAT.F,ExtBa=12.30
25/09/2019,10:25:31,TEMP=16.8,BA=5.64,STAT.D,ExtBa=12.30
25/09/2019,10:40:31,TEMP=16.9,BA=5.64,STAT.D,ExtBa=12.30
25/09/2019,10:55:31,TEMP=17.3,BA=5.64,STAT.D,ExtBa=12.30
25/09/2019,11:10:33,TEMP=17.6,BA=5.64,STAT.F,ExtBa=12.30
25/09/2019,11:25:32,TEMP=17.9,BA=5.64,STAT.D,ExtBa=12.30
25/09/2019,11:40:31,TEMP=18.3,BA=5.64,STAT.D,ExtBa=12.30
25/09/2019,11:55:31,TEMP=18.8,BA=5.64,STAT.D,ExtBa=12.30
25/09/2019,12:10:33,TEMP=19.2,BA=5.64,STAT.F,ExtBa=12.30
25/09/2019,12:25:31,TEMP=19.1,BA=5.64,STAT.D,ExtBa=12.30
25/09/2019,12:40:31,TEMP=19.2,BA=5.64,STAT.D,ExtBa=12.30
25/09/2019,12:55:31,TEMP=19.2,BA=5.64,STAT.D,ExtBa=12.30
25/09/2019,13:10:33,TEMP=19.5,BA=5.64,STAT.F,ExtBa=12.30
25/09/2019,13:25:31,TEMP=19.6,BA=5.64,STAT.D,ExtBa=12.30
25/09/2019,13:40:31,TEMP=19.2,BA=5.64,STAT.D,ExtBa=12.30
25/09/2019,13:55:31,TEMP=18.8,BA=5.64,STAT.D,ExtBa=12.30
25/09/2019,14:10:33,TEMP=18.4,BA=5.64,STAT.F,ExtBa=12.30
25/09/2019,14:25:31,TEMP=18.2,BA=5.64,STAT.D,ExtBa=12.30
25/09/2019,14:40:32,TEMP=17.9,BA=5.64,STAT.D,ExtBa=12.30
25/09/2019,14:55:31,TEMP=17.6,BA=5.64,STAT.D,ExtBa=12.30
25/09/2019,15:10:33,TEMP=17.5,BA=5.64,STAT.F,ExtBa=12.30
25/09/2019,15:13:11,TEMP=17.7,BA=5.64,STAT.A,ExtBa=12.20
25/09/2019,15:28:23,TEMP=17.5,BA=5.64,STAT.A,ExtBa=12.30
25/09/2019,15:40:55,TEMP=17.6,BA=5.64,STAT.C,ExtBa=12.30
25/09/2019,15:51:27,TEMP=17.3,BA=5.64,STAT.A,ExtBa=12.30
25/09/2019,16:00:28,TEMP=17.1,BA=5.64,STAT.A,ExtBa=12.30
25/09/2019,16:08:19,TEMP=17.0,BA=5.64,STAT.A,ExtBa=12.30
25/09/2019,16:15:12,TEMP=16.9,BA=5.60,STAT.A,ExtBa=12.20
25/09/2019,16:21:17,TEMP=16.8,BA=5.64,STAT.B,ExtBa=12.20
25/09/2019,16:33:54,TEMP=16.5,BA=5.64,STAT.A,ExtBa=12.30
25/09/2019,16:43:46,TEMP=16.3,BA=5.64,STAT.A,ExtBa=12.30
25/09/2019,16:51:42,TEMP=16.2,BA=5.64,STAT.A,ExtBa=12.20
25/09/2019,16:58:15,TEMP=16.2,BA=5.64,STAT.A,ExtBa=12.20
25/09/2019,17:03:45,TEMP=16.3,BA=5.64,STAT.A,ExtBa=12.20
25/09/2019,17:08:26,TEMP=16.5,BA=5.64,STAT.A,ExtBa=12.20